Location: Arborea
(39.7744°N, 8.5819°E)
Time: 00:37:07
(UTC+00:00)

Cosmos 2237 - Pass Details

Date: 24 October 2021
Orbit: 845 x 856 km, 70.8° (Epoch: 27 November)

Event Time Altitude Azimuth Distance (km) Brightness Sun altitude
Rises 17:21:41 0° 187° (S) 3,401 7.5 -9.9°
Reaches altitude 10° 17:24:11 10° 182° (S) 2,471 6.8 -10.4°
Maximum altitude 17:29:40 52° 108° (ESE) 1,058 4.4 -11.4°
Drops below altitude 10° 17:35:12 10° 33° (NNE) 2,493 6.3 -12.5°
Sets 17:37:43 0° 29° (NNE) 3,434 7.0 -13.0°
